カタログに戻る

DMSP 5D-2 F13 DEB

運用中SSO
NORAD 40407·DEBRIS·🇺🇸 United States

打ち上げ Mar 24, 1995 から Vandenberg Space Force Base

Loading…

次のパス (今後24時間)

TLE

最新Source: Space-Track

元期: Sep 14, 2026, 12:08 UTC

1 40407U 95015U   26257.50597615  .00000154  00000-0  97402-4 0  9991
2 40407  98.8004 271.3971 0005080 254.6085 105.4529 14.17696929597178

AllMySatでDMSP 5D-2 F13 DEBをリアルタイム追跡

Download on the App Store